Location: Ferintosh
(52.7647°N, 112.9692°W)
Time: 21:31:25
(UTC+00:00)

A-11 Canister half - Pass Details

Date: 22 May 2024
Orbit: 1524 x 1683 km, 47.3° (Epoch: 19 June)

Event Time Altitude Azimuth Distance (km) Brightness Sun altitude
Rises 09:06:15 0° 276° (W) 4,753 11.4 -13.7°
Reaches altitude 10° 09:09:21 10° 272° (W) 3,788 10.8 -13.5°
Maximum altitude 09:18:40 56° 198° (SSW) 1,874 9.1 -12.9°
Drops below altitude 10° 09:28:17 10° 124° (SE) 3,902 11.1 -12.2°
Sets 09:31:32 0° 120° (ESE) 4,904 11.6 -12.0°
